Temp
24 23 22 22 23 22 23 25 26 26 26 26 28 26 25 24 24 23 20 21 22 22 22 21 22 22 22 22 22 21 21 21 21 21 21 21 22 22 22 22 22 22 22 21 21 21 21 21 21
24 22 23 21 22 23 24 26 24 25 26 26 26 25 24 22 22 21 20 21 22 22 21 21 21 22 22 22 21 21 22 21 21 21 21 21 22 22 22 22 22 21 21 21 21 20 20 20 21
24 24 22 21 22 24 24 25 25 25 26 26 27 25 24 22 21 21 21 21 22 22 22 21 22 22 22 21 21 21 21 21 21 21 21 21 21 21 21 21 21 21 21 20 20 21 21 20 20
24 22 21 22 23 24 24 25 24 25 26 27 26 24 24 23 21 22 21 21 22 21 22 21 22 21 21 21 21 21 21 21 22 21 21 21 21 20 21 20 20 21 21 21 21 21 20 21 21
24 22 22 23 24 24 24 25 25 25 26 26 26 23 22 23 23 22 21 21 22 21 21 21 22 22 21 21 21 21 21 21 22 22 21 22 21 21 21 21 20 21 21 21 21 21 21 22 22
22 22 23 23 24 24 24 25 25 26 25 25 24 22 21 21 21 21 22 22 21 21 21 22 21 22 22 21 21 21 21 22 22 21 22 21 21 21 21 21 20 20 21 22 21 22 22 22 22
24 22 24 24 24 24 24 26 25 25 25 25 24 21 21 21 20 21 22 21 21 21 21 21 21 21 21 21 21 21 21 21 21 21 21 21 21 21 21 20 20 21 22 21 22 22 21 21 22
23 22 24 23 24 24 25 26 27 25 26 26 25 21 21 21 20 21 21 21 21 21 21 21 21 21 21 20 21 20 20 21 21 21 21 21 20 21 20 21 20 20 21 21 22 22 22 22 21
25 22 23 24 23 25 24 26 28 27 25 26 25 23 22 21 20 20 20 20 20 21 21 21 21 20 21 21 20 20 20 21 21 21 21 21 21 21 21 21 21 20 21 21 21 22 22 22 22
24 22 25 25 24 24 25 25 26 26 26 24 22 21 20 20 19 19 19 19 20 20 21 21 20 21 21 20 20 20 20 21 21 22 22 21 21 21 21 21 21 21 21 21 22 22 22 22 22
25 24 25 24 24 25 26 26 26 25 25 25 22 21 20 20 20 19 19 20 20 20 21 20 20 21 21 20 20 21 21 21 22 22 22 22 22 22 22 22 22 22 22 22 22 22 22 22 21
26 24 25 24 24 24 24 25 25 26 26 26 23 22 21 21 20 20 19 20 20 20 20 20 20 21 21 20 21 21 21 22 22 22 22 22 22 22 23 23 23 23 22 22 22 22 21 21 22
25 25 24 23 24 23 24 24 25 26 27 25 24 23 22 21 21 20 20 20 20 20 20 20 21 21 21 21 21 21 21 22 22 22 22 22 23 23 23 23 23 23 23 22 22 22 21 22 21
25 24 24 24 23 24 24 25 25 26 25 24 24 23 22 22 21 21 21 21 20 21 21 20 21 21 21 21 21 21 22 22 22 23 23 23 23 23 23 23 23 23 22 22 22 22 23 22 22
24 24 25 24 24 25 24 25 25 26 25 24 24 23 23 22 22 22 21 21 22 22 21 21 21 21 21 21 21 22 22 22 23 23 23 23 23 24 24 24 24 23 23 23 23 24 24 23 24
23 23 24 25 24 25 24 25 26 26 24 24 24 24 24 23 23 23 22 22 21 22 21 21 21 21 21 21 22 22 22 22 23 23 24 24 24 24 24 24 24 24 24 23 24 24 24 24 24
22 24 24 25 25 24 24 24 25 25 24 24 24 24 24 23 23 23 23 23 22 22 22 21 21 21 22 22 22 22 22 22 23 23 24 23 24 24 24 24 24 24 24 24 24 24 23 23 23
25 23 24 24 25 25 24 23 24 25 24 24 24 24 23 23 23 23 23 23 22 22 22 22 21 22 22 22 22 22 22 23 23 23 24 24 24 24 24 24 24 24 24 24 24 24 23 22 21
25 23 25 26 26 25 23 23 24 24 24 24 24 23 24 23 23 23 22 22 22 22 22 21 21 22 22 21 21 22 22 23 24 24 24 24 24 23 23 23 24 24 24 24 24 23 22 22 20
25 25 25 26 26 25 24 24 24 24 23 24 24 23 23 22 22 22 22 21 21 22 22 22 22 22 22 22 22 22 23 23 24 24 25 25 25 24 24 24 24 24 24 24 23 23 23 23 21
24 24 25 26 25 23 24 23 23 24 23 24 23 23 23 22 21 20 21 22 21 21 22 22 22 22 22 22 22 22 22 23 24 24 25 25 25 24 24 24 23 24 23 23 24 23 23 23 21
23 26 27 26 25 25 25 23 23 23 23 23 24 23 23 22 23 22 21 21 21 21 22 22 22 22 22 22 22 22 23 23 24 24 24 24 24 24 24 24 23 23 23 24 24 23 23 23 22
26 27 26 26 24 24 23 23 25 23 23 22 23 23 23 23 23 21 21 22 22 22 22 22 22 22 22 22 22 22 23 23 23 24 24 24 24 24 24 24 24 23 23 23 23 23 23 23 23
27 25 23 21 21 22 23 24 24 24 24 25 23 24 24 23 23 22 22 22 22 22 22 22 22 22 22 22 22 22 23 23 23 24 24 24 24 24 24 24 24 24 23 23 23 24 23 24 24
25 23 21 23 22 23 21 23 23 26 25 25 24 24 24 24 23 22 21 21 22 22 22 22 22 22 22 23 22 23 23 23 23 23 24 24 25 25 25 24 24 24 24 23 23 24 24 24 24
23 22 21 25 23 24 23 23 26 26 25 25 25 24 24 23 23 22 22 22 21 22 22 22 22 23 22 22 23 23 23 23 23 23 23 24 24 25 24 25 24 24 24 24 24 24 24 24 24
25 24 24 21 21 22 22 24 25 26 25 25 24 24 24 23 23 23 23 22 22 22 22 23 23 23 23 23 23 23 23 23 23 24 23 24 24 25 25 25 25 24 24 24 24 24 24 24 24
26 24 25 21 26 25 23 23 24 28 26 24 24 24 24 23 23 22 22 22 22 22 23 23 23 24 24 23 23 24 24 24 24 24 24 23 24 24 24 24 24 24 24 24 24 24 24 23 23
26 25 21 21 21 23 23 25 23 26 27 26 25 24 24 23 23 23 22 23 23 23 22 23 23 24 23 24 24 24 24 24 23 24 24 24 23 24 24 24 24 24 24 24 24 24 24 24 23
26 26 23 23 25 19 21 24 27 26 26 26 26 25 24 24 23 23 23 23 23 23 23 23 23 23 24 24 24 24 24 24 23 23 24 24 24 24 24 24 24 24 23 23 24 24 24 24 24
Height
774 775 776 776 798 801 810 804 789 792 788 780 774 783 790 791 796 813 794 797 799 803 806 810 812 815 819 820 821 821 822 823 825 827 829 830 831 832 833 834 834 835 835 835 836 837 839 840 840
774 775 776 781 808 815 813 792 799 792 785 780 780 784 791 800 790 794 797 799 802 804 808 811 815 816 820 821 823 824 824 825 827 829 831 831 833 834 835 835 835 836 836 837 837 838 840 841 841
774 774 781 795 809 813 811 793 792 787 782 783 785 783 788 795 792 795 795 799 803 806 809 813 816 819 821 823 824 825 826 827 829 830 831 833 834 835 835 836 836 837 837 838 839 840 841 842 842
774 775 782 803 810 801 797 790 788 787 780 779 785 796 788 788 792 794 796 800 804 808 811 815 817 819 821 824 826 827 827 829 830 831 833 835 835 836 837 838 838 838 838 840 841 841 842 842 843
774 779 801 805 801 795 789 785 785 790 786 784 784 799 799 793 792 794 798 803 805 809 813 816 819 821 822 825 827 827 828 830 831 832 835 836 836 837 838 838 840 840 840 841 842 843 843 843 844
784 787 808 813 802 792 784 781 782 784 784 786 791 798 799 796 795 798 801 805 808 810 814 818 820 821 824 826 827 828 830 831 833 834 836 835 837 838 839 840 842 842 842 843 844 844 844 844 845
786 797 806 801 802 794 788 779 786 785 785 788 786 803 798 798 799 800 802 806 809 813 816 819 822 823 825 826 827 829 830 832 834 835 835 837 838 838 839 841 842 843 844 845 846 845 844 845 846
781 792 802 801 804 802 784 783 777 783 785 780 784 800 802 796 800 803 804 807 812 815 818 820 822 824 825 825 827 830 832 833 834 835 836 838 838 839 841 842 843 844 845 846 848 846 845 846 846
776 803 810 798 802 791 784 785 774 772 781 783 784 786 787 793 801 804 807 809 814 816 819 821 822 824 825 826 828 830 833 835 835 835 837 837 839 840 841 843 843 844 845 844 845 846 845 845 845
785 805 795 785 787 788 784 784 780 783 785 789 789 788 789 794 802 804 807 808 812 815 817 819 821 824 826 826 828 830 832 834 835 835 836 837 839 841 841 842 843 843 842 844 843 845 845 844 844
782 795 783 785 783 779 781 781 778 784 791 785 791 792 793 797 802 803 806 808 810 813 817 819 820 823 825 826 829 831 833 834 835 835 836 838 840 840 840 841 842 842 842 843 843 842 842 842 842
786 782 781 784 782 782 785 781 786 782 781 777 783 788 792 796 799 801 805 808 810 813 816 818 820 822 824 827 829 831 833 835 835 836 836 838 839 840 840 840 841 841 841 841 841 841 841 841 841
785 783 783 782 782 783 781 785 786 782 775 779 785 788 791 794 798 801 804 808 810 812 815 817 820 821 824 826 828 831 833 834 835 836 836 838 839 839 840 840 840 840 841 841 840 837 837 837 837
783 785 785 783 783 782 785 785 784 778 774 782 785 788 792 794 796 800 803 806 809 812 815 817 820 822 824 826 828 830 832 834 835 835 836 837 838 838 839 839 839 839 840 839 839 837 835 835 835
786 792 784 785 785 786 783 791 789 777 776 782 786 788 790 793 795 795 799 804 807 810 815 817 819 821 823 826 828 830 832 833 834 834 835 837 838 838 838 838 839 838 838 837 836 836 834 833 834
795 795 802 786 786 784 789 803 783 777 780 785 785 787 789 790 791 794 798 802 806 810 813 816 818 820 823 825 827 829 831 832 832 833 835 836 837 837 838 838 838 837 836 836 835 835 833 833 833
805 811 806 793 782 787 795 799 782 777 781 783 785 786 786 787 789 791 795 799 803 807 811 815 818 819 821 824 826 829 830 831 832 832 834 835 836 836 837 838 838 836 836 836 835 834 833 833 832
808 810 802 800 787 786 796 798 787 780 781 782 782 782 784 784 782 787 792 796 801 805 809 813 816 819 821 823 825 827 828 829 830 831 832 834 834 835 836 837 837 836 836 836 835 834 834 832 832
795 801 797 785 776 787 793 794 785 781 780 781 780 780 779 780 782 785 789 794 799 803 806 811 814 817 819 821 823 824 825 826 828 829 831 832 833 835 835 836 836 835 835 835 835 834 834 832 832
792 797 796 785 778 787 790 788 779 775 775 773 773 776 777 781 782 785 788 792 795 799 803 808 811 815 817 820 822 823 824 825 826 827 828 829 832 834 834 835 836 835 834 834 834 834 833 833 833
793 800 794 792 786 790 792 794 781 769 766 765 767 768 771 775 779 783 784 787 792 796 799 803 808 812 816 818 821 822 823 823 824 826 827 827 830 832 834 834 835 834 834 834 834 833 833 834 834
805 780 780 790 797 809 792 819 786 776 772 766 764 766 769 771 773 777 780 784 788 792 797 801 806 809 813 816 818 820 821 823 824 825 826 827 829 831 832 833 833 833 833 833 833 832 832 833 834
785 771 782 788 800 805 808 814 782 778 778 771 762 761 763 765 768 773 776 778 784 790 794 798 803 807 811 814 816 817 819 822 823 824 825 826 827 829 830 831 831 832 832 833 833 832 832 833 833
766 784 798 808 815 829 808 807 795 783 771 760 758 757 759 762 764 770 775 778 783 788 791 796 801 804 807 811 813 815 817 820 821 822 823 824 825 826 827 828 829 830 831 831 832 831 832 833 833
781 802 838 834 836 830 812 811 790 763 756 753 755 754 754 758 763 767 772 775 779 782 787 792 797 800 804 807 810 813 816 818 820 821 822 823 822 822 824 826 827 828 829 830 830 830 831 832 832
791 800 832 834 840 824 804 812 781 751 749 746 745 748 752 757 759 762 766 771 774 777 781 787 791 796 800 803 805 809 813 816 817 819 820 820 820 820 823 825 825 826 827 828 828 829 829 830 831
785 799 784 819 824 827 814 791 763 750 754 752 751 750 751 754 756 758 762 765 770 774 777 781 786 790 795 798 802 805 809 812 813 816 818 818 818 820 821 822 822 824 826 825 826 827 828 828 829
763 769 800 815 816 825 817 807 795 760 759 757 755 752 751 751 754 757 760 763 765 769 773 777 781 784 788 793 797 799 802 806 809 812 814 816 817 819 819 820 821 822 822 823 824 825 826 827 828
773 780 795 804 815 827 830 804 766 758 750 751 751 749 748 749 750 752 754 757 761 766 770 774 777 780 784 787 790 793 796 800 804 807 810 812 814 816 817 818 819 819 819 820 821 822 824 825 826
754 765 779 807 806 824 820 803 747 747 744 741 744 745 743 742 742 746 749 753 757 761 764 767 771 775 777 781 785 787 791 795 798 802 804 807 808 811 814 816 816 816 816 817 818 820 821 822 824
Wind_Speed
6 5 2 2 3 4 1 3 1 7 3 3 3 3 4 3 2 2 3 11 24 24 20 18 17 15 13 12 12 12 10 10 10 10 10 10 10 10 9 9 8 7 7 7 9 9 9 9 9
5 3 2 2 4 3 1 3 9 8 5 4 6 2 4 1 3 8 12 13 24 24 21 18 16 15 13 13 12 10 9 9 9 8 9 9 10 9 9 9 9 9 9 8 8 8 8 8 8
3 3 3 4 2 1 3 2 5 7 7 6 2 4 2 2 4 13 9 23 25 23 20 17 16 15 14 12 11 10 8 7 9 7 9 9 9 9 9 9 9 9 9 8 8 8 9 8 7
2 4 3 4 2 2 2 2 5 9 5 5 4 4 3 4 12 8 23 25 24 21 19 16 14 15 14 13 11 8 7 7 8 8 9 10 10 10 9 9 9 9 9 8 8 8 8 7 7
3 3 4 3 0 3 3 2 3 6 5 6 3 2 3 2 6 19 25 23 22 20 18 15 14 13 13 11 11 9 7 7 7 7 8 9 10 10 8 9 9 7 9 7 7 7 6 5 5
3 2 3 3 2 3 2 3 1 4 5 5 4 4 0 4 17 23 23 22 20 21 17 13 12 11 11 12 9 8 8 9 8 7 8 9 10 9 7 8 9 8 8 6 6 5 5 3 4
4 3 2 2 1 4 1 2 1 5 3 2 6 3 2 3 11 21 22 21 20 18 17 15 12 11 10 10 10 10 9 8 8 9 9 8 8 8 6 6 6 6 7 6 6 5 5 2 3
3 3 1 3 4 4 2 0 4 3 2 4 6 5 4 6 16 19 21 20 18 16 15 16 13 11 11 10 10 11 9 8 10 10 7 8 8 6 5 5 5 4 5 4 5 4 5 5 3
3 3 2 3 4 2 3 1 3 5 8 1 2 5 7 22 20 20 20 18 16 15 16 15 13 10 11 9 9 10 8 7 10 11 8 8 7 6 4 3 5 4 5 4 3 5 5 9 8
3 2 3 1 3 2 4 0 4 2 4 3 4 9 20 23 20 18 17 16 17 17 16 15 15 13 12 10 12 12 11 8 8 8 8 8 6 3 3 4 5 5 6 5 5 5 7 10 11
3 2 1 3 3 3 5 2 3 7 3 4 6 10 13 18 15 17 15 17 18 18 17 16 16 14 12 11 10 11 11 8 7 9 7 6 3 1 3 5 6 7 5 4 0 2 3 7 10
2 4 2 3 2 2 3 2 4 3 1 3 14 14 12 12 14 15 16 18 18 20 18 17 15 13 12 10 11 11 10 7 8 8 6 3 2 0 1 3 6 4 3 5 5 1 3 6 5
2 1 3 2 4 4 4 2 2 7 2 10 11 11 11 10 13 12 15 15 18 19 18 18 16 14 12 12 11 10 10 8 7 5 4 1 1 2 2 2 4 4 3 1 5 0 1 4 3
3 3 2 2 2 2 5 3 1 3 11 10 11 10 7 8 12 12 16 18 19 19 19 18 17 15 13 12 10 9 10 8 6 5 3 3 3 3 3 3 5 5 2 4 5 2 4 3 7
2 2 2 2 3 2 1 4 4 3 10 12 10 8 7 7 12 17 19 20 21 20 19 19 17 15 14 11 11 9 8 6 5 5 4 3 2 1 1 1 2 2 2 1 3 3 2 2 4
3 2 1 3 6 0 5 4 5 5 10 8 10 9 9 9 14 15 16 18 19 19 21 19 18 16 14 12 11 9 8 7 6 5 3 4 2 4 4 2 3 0 1 1 1 7 3 3 1
4 2 2 1 7 4 2 4 5 5 8 10 10 10 11 9 10 18 17 19 20 21 21 21 19 17 16 13 12 9 7 8 7 5 4 4 7 6 8 5 3 0 1 2 2 4 6 5 4
3 2 4 4 5 5 4 8 6 5 5 7 8 11 11 10 14 17 18 18 19 21 22 23 20 17 16 13 12 9 9 7 6 7 6 3 8 9 8 8 6 3 2 3 2 3 5 9 7
1 3 5 2 5 6 8 6 10 7 6 8 8 7 12 13 6 15 18 17 18 22 24 25 23 20 18 16 14 11 10 9 7 8 7 9 9 10 9 7 6 4 4 4 4 2 1 1 3
4 1 6 1 1 3 1 11 9 7 7 9 10 8 9 6 7 10 15 18 19 24 26 27 25 23 20 17 16 11 7 7 8 7 8 6 8 7 7 7 7 6 6 5 3 4 2 1 3
4 4 3 2 3 2 3 8 6 5 8 6 7 7 8 11 10 8 15 19 20 23 26 26 28 24 21 18 17 13 7 6 7 9 8 9 9 7 8 7 6 6 6 6 5 4 5 3 3
4 7 7 4 1 1 1 4 6 3 6 9 9 9 11 11 12 10 13 16 23 26 26 26 28 25 21 19 20 17 13 9 6 7 6 8 9 8 8 7 7 7 7 6 5 5 5 5 4
7 7 5 3 1 4 2 1 6 3 5 7 11 9 9 11 13 13 16 23 24 23 26 27 28 27 25 22 22 21 17 14 10 6 8 11 11 10 9 8 10 8 7 8 6 5 5 4 4
2 6 7 5 3 2 3 3 6 3 6 4 5 9 9 9 10 9 14 17 18 21 23 26 27 27 29 24 24 23 19 16 13 12 11 11 12 14 12 10 8 8 8 7 6 7 4 6 5
6 6 4 3 3 5 3 3 9 6 7 5 8 11 11 9 10 9 11 16 22 25 25 26 27 28 29 29 28 26 23 19 17 14 13 14 14 16 14 12 10 9 6 7 6 5 5 5 5
6 8 6 5 3 4 1 5 5 4 6 2 4 9 9 9 10 12 13 17 22 26 28 28 28 30 30 31 31 29 26 23 21 17 14 14 14 12 12 11 11 10 8 6 4 8 5 5 5
5 4 5 6 3 3 3 6 8 1 3 4 5 6 9 9 8 11 13 20 23 24 30 31 30 30 32 32 31 30 29 27 25 22 17 16 15 13 12 12 13 12 12 9 8 10 7 5 5
6 7 4 2 1 3 4 5 5 2 4 5 5 6 7 7 7 7 9 18 22 27 31 31 32 32 32 32 32 32 31 30 28 25 22 19 17 16 14 14 13 12 14 13 10 9 9 8 8
2 1 6 5 4 5 1 6 6 7 7 8 8 8 7 8 8 9 11 19 23 23 26 32 31 31 31 31 31 32 32 31 29 27 26 24 21 19 19 19 19 17 16 16 14 13 13 14 11
3 7 6 5 4 2 3 6 4 7 7 5 7 8 8 7 9 9 11 18 21 25 27 30 32 33 34 32 31 32 31 31 29 29 29 28 28 25 23 21 20 18 15 16 16 16 15 14 14
Wind_Direction
134 107 122 80 57 70 61 92 6 330 345 345 123 115 134 46 119 200 123 162 156 154 151 148 152 153 148 146 144 140 140 136 133 137 138 139 136 139 141 140 149 146 135 138 130 134 130 131 140
136 153 71 69 80 90 329 77 45 33 103 15 63 57 40 80 82 123 127 154 158 154 152 151 150 153 153 146 146 142 142 131 131 138 134 135 141 140 141 142 143 141 142 137 132 128 128 131 140
107 178 85 81 60 160 132 110 64 343 322 340 95 50 117 119 93 150 152 159 158 157 156 156 156 160 154 148 147 146 140 137 133 136 125 139 137 145 142 139 139 131 133 141 140 135 125 125 132
225 19 41 82 134 233 276 68 22 348 16 97 83 61 43 248 153 161 151 156 157 158 159 160 166 159 155 158 157 161 154 143 145 144 136 140 140 137 140 135 139 134 127 134 136 128 120 126 134
40 56 49 12 297 195 219 311 324 320 309 298 109 138 70 316 144 148 152 158 156 156 156 161 160 154 153 155 160 165 156 148 148 141 139 136 136 139 131 135 132 135 137 138 137 133 131 138 149
34 91 31 334 295 336 328 329 293 296 303 108 92 95 90 125 144 154 156 158 158 154 152 152 152 152 154 152 161 170 159 155 150 138 133 136 138 131 129 133 131 140 141 147 138 118 100 111 137
122 87 235 309 245 348 251 48 115 222 150 138 126 85 92 129 149 159 158 157 159 155 153 148 152 155 158 156 176 168 157 146 132 121 127 128 128 134 146 140 143 149 147 145 139 113 114 155 123
104 94 185 250 181 233 132 226 182 157 137 97 152 159 183 160 161 161 154 155 159 159 154 153 155 159 158 161 171 162 159 138 123 121 137 116 123 119 127 152 149 155 149 161 144 131 187 152 118
109 65 269 229 170 188 139 320 85 101 136 70 14 140 159 151 161 153 151 152 160 163 164 164 163 165 162 154 157 160 169 141 136 132 142 131 133 136 139 139 149 176 188 172 171 176 207 190 192
118 123 257 125 172 172 146 103 346 123 148 83 70 80 123 141 156 152 165 161 169 163 164 166 167 181 174 170 164 167 172 161 138 140 138 125 123 134 183 190 176 184 187 186 199 201 182 201 211
161 194 302 349 170 213 130 97 323 130 243 189 164 147 139 147 172 170 180 175 173 166 164 168 171 176 177 179 169 170 170 160 148 143 144 128 122 68 244 215 195 206 192 208 54 168 176 202 202
165 30 89 157 158 119 83 345 6 234 204 133 153 156 150 168 187 187 175 183 177 172 170 172 175 177 176 179 173 175 173 165 156 154 160 141 124 98 106 203 191 200 217 183 147 140 190 167 189
63 164 74 147 134 108 116 133 252 258 222 122 144 166 172 177 189 192 188 188 177 178 179 178 180 180 175 175 181 190 181 172 164 174 174 169 195 225 238 239 217 216 192 172 183 30 98 153 119
352 54 159 81 161 97 114 297 65 324 132 140 160 182 187 193 185 179 181 189 185 182 184 180 182 181 175 178 189 196 184 177 188 200 237 247 223 234 243 247 263 244 272 221 228 257 178 114 97
13 280 187 144 141 241 177 323 203 156 145 161 182 185 199 209 194 197 199 190 196 189 184 184 182 183 187 190 195 192 192 211 243 244 226 206 187 207 232 206 297 274 253 223 181 170 225 206 102
13 15 0 153 141 304 152 254 208 171 158 179 187 192 209 220 218 207 207 204 198 193 194 188 186 187 188 195 194 203 221 234 229 208 196 212 233 238 229 266 310 97 205 290 268 209 272 42 309
18 264 297 261 186 122 230 266 211 168 186 191 195 205 207 211 218 225 204 207 201 202 195 195 194 197 189 195 190 206 220 240 222 225 227 244 230 224 233 239 252 260 341 319 307 238 261 291 298
292 248 256 249 176 161 203 260 259 208 213 213 205 204 211 208 214 216 207 207 203 203 199 200 196 195 189 186 198 220 227 223 221 229 234 268 220 217 229 228 243 244 263 268 256 259 277 279 293
189 201 243 251 182 158 219 243 253 208 198 231 235 214 211 214 190 202 205 198 201 203 199 202 198 197 195 192 202 223 233 223 251 240 250 280 227 225 234 237 247 255 271 258 228 249 228 326 162
204 49 266 205 144 183 328 259 244 223 221 206 212 201 192 163 166 179 194 188 198 202 201 205 208 202 203 208 214 215 228 228 251 249 252 233 198 208 237 263 255 259 255 235 226 232 260 222 200
250 192 252 321 90 78 0 288 247 232 205 205 210 190 194 186 177 181 185 195 199 206 203 209 209 206 207 209 208 210 218 225 234 242 236 188 201 219 250 255 263 261 258 258 250 241 234 222 217
255 207 241 126 269 261 243 278 293 298 238 205 205 185 189 190 195 189 180 191 200 207 207 210 206 206 209 208 205 209 216 213 222 235 234 215 223 234 238 253 258 274 269 268 252 225 230 212 189
239 133 203 105 359 357 4 358 270 21 277 234 216 199 187 193 189 185 192 196 208 207 209 210 211 211 211 213 216 219 225 228 232 252 241 249 241 245 243 249 265 264 272 256 235 211 193 203 208
53 72 54 46 47 317 276 177 283 220 218 263 192 205 186 189 196 188 195 189 200 211 213 212 214 215 211 219 221 223 229 229 238 250 256 261 246 247 252 245 256 254 271 252 233 215 230 216 238
80 65 358 349 353 227 278 151 249 268 253 237 204 190 185 185 182 171 174 184 193 206 209 214 217 217 216 218 225 227 229 231 238 248 253 251 251 261 247 235 247 257 266 249 231 208 239 234 249
165 154 161 218 208 267 338 239 254 219 308 214 215 170 157 177 180 185 188 189 197 201 209 211 215 220 222 223 227 229 230 235 239 247 254 258 260 257 236 241 247 252 256 261 233 226 246 244 245
167 157 189 99 14 43 263 293 310 134 47 89 130 154 176 185 188 188 184 190 198 201 208 214 217 221 223 228 232 234 237 236 239 245 252 257 252 246 250 252 251 254 248 251 255 241 241 247 226
160 156 80 345 140 282 305 287 241 260 214 180 164 193 198 185 184 182 189 200 204 210 215 217 221 222 226 228 234 237 240 241 242 242 245 250 255 258 262 261 251 256 244 240 241 233 242 236 232
141 147 58 117 121 156 239 269 215 213 200 190 190 195 204 203 197 197 197 204 209 212 217 219 220 224 228 229 234 237 241 240 242 241 242 244 250 256 259 257 257 262 257 237 237 239 243 239 245
206 170 140 127 225 108 148 274 222 223 230 239 194 193 189 204 205 194 194 196 202 209 217 222 225 224 232 233 233 237 241 243 244 244 245 248 248 249 254 258 259 260 249 236 239 246 245 242 251